NT2C Weather Reports


Display with metric or nautical units.
time (UTC)temp
F
wind
direction
speed
MPH
gust
MPH
rain 1hr
in
rain 24hr
in
rain mn
in
humidity
%
barometer
mb
20260905161018 78 15 1.0 5.0 0.00 0.00 0.00 81 1005.1
20260905160517 78 14 2.0 7.0 0.00 0.00 0.00 80 1005.1
20260905160025 78 75 0.0 7.0 0.00 0.00 0.00 81 1005.1
20260905155520 78 58 1.0 6.0 0.00 0.00 0.00 80 1005.0
20260905155015 79 50 1.0 5.0 0.00 0.00 0.00 79 1005.0
20260905154516 79 31 2.0 5.0 0.00 0.00 0.00 79 1005.0
20260905154017 79 30 0.0 8.0 0.00 0.00 0.00 79 1004.7
20260905153516 79 25 1.0 5.0 0.00 0.00 0.00 80 1004.6
20260905153014 79 58 2.0 5.0 0.00 0.00 0.00 79 1004.7
20260905152616 79 94 3.0 5.0 0.00 0.00 0.00 79 1004.7
20260905152016 79 16 1.0 5.0 0.00 0.00 0.00 78 1004.7
20260905151514 79 81 0.0 7.0 0.00 0.00 0.00 79 1004.9
20260905151014 79 49 2.0 7.0 0.00 0.00 0.00 78 1004.8
20260905150515 79 29 2.0 7.0 0.00 0.00 0.00 78 1004.9
20260905150014 79 33 2.0 6.0 0.00 0.00 0.00 78 1005.0
20260905145516 79 351 3.0 5.0 0.00 0.00 0.00 78 1005.0
20260905145013 79 309 1.0 7.0 0.00 0.00 0.00 78 1005.0
20260905144517 79 336 3.0 7.0 0.00 0.00 0.00 78 1005.1
20260905144012 79 63 0.0 5.0 0.00 0.00 0.00 79 1005.1
20260905143513 79 54 0.0 5.0 0.00 0.00 0.00 79 1005.1
20260905143011 79 23 1.0 4.0 0.00 0.00 0.00 80 1005.0
20260905142511 79 9 0.0 5.0 0.00 0.00 0.00 80 1005.0
20260905142011 79 335 0.0 5.0 0.00 0.00 0.00 79 1005.0
20260905141510 79 326 0.0 3.0 0.00 0.00 0.00 79 1004.9
20260905141014 80 8 0.0 4.0 0.00 0.00 0.00 79 1004.9
20260905140511 80 41 1.0 4.0 0.00 0.00 0.00 79 1004.9
20260905140009 79 299 1.0 6.0 0.00 0.00 0.00 79 1004.8
20260905135509 79 56 1.0 7.0 0.00 0.00 0.00 79 1004.7
20260905135012 79 324 1.0 7.0 0.00 0.00 0.00 79 1004.6
20260905134508 79 4 0.0 5.0 0.00 0.00 0.00 80 1004.5
20260905134007 79 350 2.0 5.0 0.00 0.00 0.00 80 1004.5
20260905133506 79 21 1.0 7.0 0.00 0.00 0.00 80 1004.5
20260905133005 79 58 1.0 7.0 0.00 0.00 0.00 80 1004.5
20260905132504 78 59 1.0 7.0 0.00 0.00 0.00 81 1004.5
20260905132002 78 47 0.0 7.0 0.00 0.00 0.00 83 1004.5
20260905131501 77 68 1.0 7.0 0.00 0.00 0.00 83 1004.5
20260905131059 76 37 0.0 3.0 0.00 0.00 0.00 84 1004.6
20260905130558 76 302 1.0 3.0 0.00 0.00 0.00 85 1004.5
20260905130057 75 39 0.0 4.0 0.00 0.00 0.00 85 1004.5
20260905125554 75 53 1.0 4.0 0.00 0.00 0.00 85 1004.5
20260905125053 75 49 0.0 4.0 0.00 0.00 0.00 86 1004.4
20260905124558 75 344 0.0 2.0 0.00 0.00 0.00 86 1004.3
20260905124051 74 34 0.0 3.0 0.00 0.00 0.00 87 1004.2
20260905123549 74 67 1.0 4.0 0.00 0.00 0.00 86 1004.3
20260905123050 74 32 1.0 4.0 0.00 0.00 0.00 87 1004.2
20260905122548 74 34 0.0 3.0 0.00 0.00 0.00 87 1004.2
20260905122047 73 1 0.0 3.0 0.00 0.00 0.00 88 1004.2
20260905121545 73 49 0.0 4.0 0.00 0.00 0.00 89 1004.3
20260905121047 73 47 1.0 5.0 0.00 0.00 0.00 89 1004.4
20260905120544 72 39 1.0 6.0 0.00 0.00 0.00 90 1004.4
20260905120042 72 15 1.0 5.0 0.00 0.00 0.00 92 1004.4
20260905115546 71 39 0.0 5.0 0.00 0.00 0.00 93 1004.3
20260905115043 70 35 0.0 3.0 0.00 0.00 0.00 94 1004.4
20260905114542 70 345 0.0 1.0 0.00 0.00 0.00 94 1004.2
20260905114042 70 325 0.0 1.0 0.00 0.00 0.00 94 1004.3
20260905113545 69 259 0.0 1.0 0.00 0.00 0.00 94 1004.4
20260905113048 69 259 0.0 0.0 0.00 0.00 0.00 94 1004.3
20260905112541 69 259 0.0 0.0 0.00 0.00 0.00 94 1004.3
20260905112045 69 259 0.0 0.0 0.00 0.00 0.00 94 1004.2
20260905111540 69 259 0.0 0.0 0.00 0.00 0.00 94 1004.3
20260905111041 68 259 0.0 0.0 0.00 0.00 0.00 94 1004.1
20260905110540 68 259 0.0 0.0 0.00 0.00 0.00 94 1003.8
20260905110040 68 259 0.0 0.0 0.00 0.00 0.00 93 1003.7
20260905105540 68 259 0.0 0.0 0.00 0.00 0.00 94 1003.7
20260905105015 68 259 0.0 0.0 0.00 0.00 0.00 93 1003.8
20260905104538 68 259 0.0 0.0 0.00 0.00 0.00 93 1003.7
20260905104038 68 259 0.0 0.0 0.00 0.00 0.00 93 1003.5
20260905103537 69 259 0.0 0.0 0.00 0.00 0.00 93 1003.6
20260905103044 69 259 0.0 0.0 0.00 0.00 0.00 93 1003.6
20260905102536 69 259 0.0 0.0 0.00 0.00 0.00 93 1003.5
20260905102035 69 259 0.0 0.0 0.00 0.00 0.00 93 1003.5
20260905101536 69 259 0.0 0.0 0.00 0.00 0.00 93 1003.4
20260905101035 69 259 0.0 0.0 0.00 0.00 0.00 93 1003.4
20260905100535 69 259 0.0 0.0 0.00 0.00 0.00 93 1003.5
20260905100039 69 259 0.0 1.0 0.00 0.00 0.00 93 1003.4
20260905095534 69 259 0.0 1.0 0.00 0.00 0.00 93 1003.3
20260905095034 69 234 0.0 0.0 0.00 0.00 0.00 93 1003.3
20260905094534 69 231 0.0 0.0 0.00 0.00 0.00 93 1003.2
20260905094034 69 231 0.0 0.0 0.00 0.00 0.00 93 1003.0
20260905093533 70 231 0.0 0.0 0.00 0.00 0.00 93 1003.0
20260905093046 70 231 0.0 0.0 0.00 0.00 0.00 93 1003.0
20260905092533 70 231 0.0 0.0 0.00 0.00 0.00 93 1003.0
20260905092032 70 231 0.0 0.0 0.00 0.00 0.00 93 1003.0
20260905091532 70 231 0.0 0.0 0.00 0.00 0.00 93 1003.1
20260905091031 70 231 0.0 0.0 0.00 0.00 0.00 93 1003.0
20260905090531 70 231 0.0 0.0 0.00 0.00 0.00 93 1003.0
20260905090035 70 231 0.0 0.0 0.00 0.00 0.00 93 1003.1
20260905085531 70 231 0.0 0.0 0.00 0.00 0.00 93 1003.2
20260905085030 70 231 0.0 0.0 0.00 0.00 0.00 93 1003.2
20260905084529 70 231 0.0 0.0 0.00 0.00 0.00 93 1003.2
20260905084030 70 231 0.0 0.0 0.00 0.00 0.00 92 1003.3
20260905083528 70 231 0.0 0.0 0.00 0.00 0.00 92 1003.3
20260905083027 70 231 0.0 0.0 0.00 0.00 0.00 92 1003.4
20260905082526 70 231 0.0 0.0 0.00 0.00 0.00 92 1003.5
20260905082026 71 231 0.0 0.0 0.00 0.00 0.00 92 1003.5
20260905081524 71 231 0.0 0.0 0.00 0.00 0.00 92 1003.4
20260905081024 71 231 0.0 1.0 0.00 0.00 0.00 92 1003.4
20260905080525 71 231 0.0 1.0 0.00 0.00 0.00 92 1003.5
20260905080023 71 285 0.0 1.0 0.00 0.00 0.00 92 1003.6
20260905075523 71 307 0.0 2.0 0.00 0.00 0.00 92 1003.7
20260905075022 71 285 0.0 2.0 0.00 0.00 0.00 92 1003.6
20260905074523 71 293 0.0 2.0 0.00 0.00 0.00 92 1003.7
20260905074022 71 288 0.0 3.0 0.00 0.00 0.00 92 1003.6
20260905073524 71 295 0.0 3.0 0.00 0.00 0.00 92 1003.8
20260905073020 71 307 1.0 2.0 0.00 0.00 0.00 92 1003.7
20260905072520 71 311 0.0 4.0 0.00 0.00 0.00 92 1003.8
20260905072020 71 330 1.0 3.0 0.00 0.00 0.00 92 1003.8
20260905071520 71 308 0.0 3.0 0.00 0.00 0.00 91 1003.8
20260905071021 71 286 0.0 2.0 0.00 0.00 0.00 91 1003.9
20260905070520 71 281 0.0 2.0 0.00 0.00 0.00 91 1003.8
20260905070024 71 285 0.0 1.0 0.00 0.00 0.00 91 1003.9
20260905065517 71 287 0.0 1.0 0.00 0.00 0.00 91 1003.8
20260905065018 71 288 0.0 1.0 0.00 0.00 0.00 91 1004.0
20260905064515 71 239 0.0 2.0 0.00 0.00 0.00 91 1004.1
20260905064015 71 233 0.0 2.0 0.00 0.00 0.00 91 1004.1
20260905063513 71 283 0.0 3.0 0.00 0.00 0.00 90 1004.2
20260905063012 71 240 0.0 3.0 0.00 0.00 0.00 90 1004.4
20260905062512 71 279 0.0 3.0 0.00 0.00 0.00 90 1004.3
20260905062011 72 318 0.0 5.0 0.00 0.00 0.00 91 1004.4
20260905061512 71 300 1.0 5.0 0.00 0.00 0.00 91 1004.5
20260905061013 71 271 1.0 5.0 0.00 0.00 0.00 91 1004.5
20260905060511 71 314 1.0 4.0 0.00 0.00 0.00 91 1004.7
20260905060011 71 314 1.0 3.0 0.00 0.00 0.00 91 1004.8
20260905055510 71 244 0.0 5.0 0.00 0.16 0.00 91 1004.9
20260905055008 71 263 1.0 5.0 0.00 0.16 0.00 91 1004.8
20260905054508 71 245 1.0 5.0 0.00 0.16 0.00 91 1004.9
20260905054007 71 236 1.0 7.0 0.00 0.16 0.00 91 1004.9
20260905053507 71 238 2.0 7.0 0.00 0.16 0.00 91 1004.9
20260905053006 72 212 2.0 6.0 0.00 0.16 0.00 91 1005.0
20260905052504 72 235 3.0 6.0 0.00 0.16 0.00 91 1005.0
20260905052006 72 251 1.0 5.0 0.00 0.16 0.00 91 1005.1
20260905051502 72 232 2.0 5.0 0.00 0.16 0.00 91 1005.1
20260905051002 72 240 2.0 5.0 0.00 0.16 0.00 91 1005.2
20260905050501 72 233 0.0 2.0 0.00 0.16 0.00 91 1005.2
20260905045559 72 241 0.0 2.0 0.00 0.18 0.00 91 1005.4
20260905045059 72 242 0.0 3.0 0.00 0.18 0.00 91 1005.4
20260905044600 72 174 1.0 3.0 0.00 0.18 0.00 91 1005.3
20260905044100 72 198 0.0 2.0 0.00 0.18 0.00 91 1005.2
20260905043600 72 239 0.0 1.0 0.00 0.18 0.00 91 1005.2
20260905043059 72 282 0.0 1.0 0.00 0.18 0.00 91 1005.3
20260905042555 72 258 0.0 1.0 0.00 0.18 0.00 91 1005.3
20260905042057 72 227 0.0 3.0 0.00 0.18 0.00 91 1005.5
20260905041553 72 244 0.0 3.0 0.00 0.18 0.00 91 1005.6
20260905041051 72 252 0.0 2.0 0.00 0.18 0.00 91 1005.7
20260905040551 72 290 0.0 2.0 0.00 0.18 0.00 91 1005.7
20260905040056 72 238 0.0 1.0 0.00 0.18 0.00 91 1005.7
20260905035549 72 218 0.0 0.0 0.00 0.18 0.18 91 1005.7
20260905035051 72 227 0.0 0.0 0.00 0.18 0.18 91 1005.7
20260905034551 72 227 0.0 0.0 0.00 0.18 0.18 91 1005.7
20260905034049 72 227 0.0 0.0 0.00 0.18 0.18 91 1005.6
20260905033549 73 230 0.0 2.0 0.00 0.18 0.18 91 1005.6
20260905033051 73 229 0.0 2.0 0.00 0.18 0.18 91 1005.5
20260905032549 73 233 0.0 2.0 0.00 0.18 0.18 90 1005.5
20260905032048 73 230 0.0 2.0 0.00 0.18 0.18 90 1005.5
20260905031551 73 231 0.0 2.0 0.00 0.18 0.18 90 1005.5
20260905031048 73 231 0.0 1.0 0.00 0.18 0.18 90 1005.4
20260905030548 73 228 0.0 1.0 0.00 0.18 0.18 90 1005.5
20260905030059 73 229 0.0 0.0 0.00 0.18 0.18 90 1005.5
20260905025548 73 228 0.0 1.0 0.00 0.18 0.18 90 1005.3
20260905025048 73 224 0.0 1.0 0.00 0.18 0.18 90 1005.4
20260905024548 73 224 0.0 1.0 0.00 0.18 0.18 90 1005.5
20260905024047 73 229 0.0 1.0 0.00 0.18 0.18 90 1005.6
20260905023550 73 231 0.0 1.0 0.00 0.18 0.18 90 1005.6
20260905023047 73 231 0.0 1.0 0.00 0.18 0.18 90 1005.8
20260905022548 73 233 0.0 1.0 0.00 0.18 0.18 90 1005.8
20260905022046 73 233 0.0 1.0 0.00 0.18 0.18 90 1005.6
20260905021547 73 236 0.0 1.0 0.00 0.18 0.18 90 1005.5
20260905021045 73 236 0.0 1.0 0.00 0.18 0.18 90 1005.5
20260905020545 73 226 0.0 1.0 0.00 0.18 0.18 90 1005.7
20260905020050 74 208 0.0 1.0 0.00 0.18 0.18 89 1005.5
20260905015546 74 206 0.0 2.0 0.00 0.18 0.18 89 1005.5
20260905015048 74 203 0.0 2.0 0.00 0.18 0.18 88 1005.2
20260905014546 74 202 0.0 0.0 0.00 0.18 0.18 88 1005.3
20260905014045 74 238 0.0 0.0 0.00 0.18 0.18 88 1005.3
20260905013547 74 238 0.0 0.0 0.00 0.18 0.18 88 1005.2
20260905013050 74 238 0.0 0.0 0.00 0.18 0.18 87 1005.1
20260905012544 74 238 0.0 1.0 0.00 0.18 0.18 87 1005.1
20260905012045 74 237 0.0 1.0 0.00 0.18 0.18 87 1005.0
20260905011623 74 237 0.0 1.0 0.00 0.18 0.18 87 1005.0
20260905011044 75 240 0.0 1.0 0.00 0.18 0.18 87 1005.0
20260905010544 75 240 0.0 0.0 0.00 0.18 0.18 87 1005.0
20260905010044 75 240 0.0 1.0 0.00 0.18 0.18 86 1004.7
20260905005543 75 251 0.0 1.0 0.00 0.18 0.18 86 1004.6
20260905005043 75 230 0.0 1.0 0.00 0.18 0.18 86 1004.6
20260905004544 75 239 0.0 4.0 0.00 0.18 0.18 86 1004.5
20260905004043 75 234 1.0 4.0 0.00 0.18 0.18 86 1004.4
20260905003543 75 233 0.0 3.0 0.00 0.18 0.18 86 1004.4
20260905003043 76 246 1.0 4.0 0.00 0.18 0.18 85 1004.4
20260905002542 76 210 1.0 5.0 0.00 0.18 0.18 85 1004.3
20260905002042 76 237 1.0 5.0 0.00 0.18 0.18 85 1004.3
20260905001552 76 193 2.0 5.0 0.00 0.18 0.18 85 1004.3
20260905001042 76 213 1.0 3.0 0.00 0.18 0.18 84 1004.6
20260905000542 76 228 0.0 4.0 0.00 0.18 0.18 84 1004.7
20260905000044 77 240 0.0 7.0 0.00 0.18 0.18 83 1005.0
20260904235543 77 222 2.0 7.0 0.00 0.18 0.18 83 1004.9
20260904235044 77 224 3.0 9.0 0.00 0.18 0.18 82 1005.0
20260904234542 78 232 2.0 9.0 0.00 0.18 0.18 82 1005.1
20260904234041 78 230 3.0 7.0 0.00 0.18 0.18 82 1004.9
20260904233540 78 224 0.0 3.0 0.00 0.18 0.18 82 1004.9
20260904233042 78 242 1.0 3.0 0.00 0.18 0.18 82 1004.8
20260904232540 78 238 0.0 3.0 0.00 0.18 0.18 83 1004.6
20260904232040 78 278 0.0 3.0 0.00 0.18 0.18 83 1004.5
20260904231539 78 295 0.0 3.0 0.00 0.18 0.18 83 1004.6
20260904231040 79 304 1.0 3.0 0.00 0.18 0.18 82 1004.2
20260904230540 79 232 0.0 2.0 0.00 0.18 0.18 82 1003.7
20260904230039 79 316 0.0 2.0 0.00 0.18 0.18 82 1004.2
20260904225539 79 280 0.0 3.0 0.00 0.18 0.18 82 1004.5
20260904225038 79 240 0.0 3.0 0.00 0.18 0.18 82 1004.4
20260904224538 79 234 1.0 6.0 0.00 0.18 0.18 82 1004.4
20260904224038 80 238 3.0 6.0 0.00 0.18 0.18 82 1004.5
20260904223538 80 231 0.0 4.0 0.00 0.18 0.18 82 1004.5
20260904223038 80 237 2.0 4.0 0.00 0.18 0.18 81 1004.6
20260904222536 80 224 1.0 4.0 0.00 0.18 0.18 80 1004.6
20260904222036 80 179 1.0 2.0 0.00 0.18 0.18 80 1004.5
20260904221536 81 236 0.0 0.0 0.00 0.18 0.18 79 1004.5
20260904221040 81 236 0.0 3.0 0.00 0.18 0.18 79 1004.8
20260904220536 81 237 0.0 3.0 0.00 0.18 0.18 77 1004.9
20260904220036 82 207 0.0 7.0 0.00 0.18 0.18 77 1005.4
20260904215536 82 235 1.0 8.0 0.00 0.18 0.18 77 1006.0
20260904215039 82 306 2.0 9.0 0.00 0.18 0.18 76 1006.0
20260904214534 82 297 2.0 8.0 0.00 0.18 0.18 76 1006.2
20260904214033 82 304 3.0 7.0 0.00 0.18 0.18 77 1005.9
20260904213534 82 6 2.0 6.0 0.00 0.18 0.18 77 1005.8
20260904213032 83 257 1.0 6.0 0.00 0.18 0.18 78 1005.6
20260904212533 83 286 1.0 3.0 0.00 0.18 0.18 78 1005.3
20260904212032 83 63 0.0 3.0 0.00 0.18 0.18 78 1004.9
20260904211531 84 84 0.0 7.0 0.00 0.18 0.18 78 1004.9
20260904211031 84 4 2.0 14.0 0.00 0.18 0.18 78 1005.1
20260904210530 84 359 2.0 14.0 0.00 0.18 0.18 77 1005.1
20260904210034 85 10 1.0 3.0 0.00 0.18 0.18 76 1004.7
20260904205534 85 349 0.0 1.0 0.00 0.18 0.18 76 1004.7
20260904205030 86 56 0.0 1.0 0.00 0.18 0.18 75 1004.5
20260904204532 86 53 0.0 1.0 0.00 0.18 0.18 75 1004.7
20260904204031 86 54 0.0 1.0 0.00 0.18 0.18 74 1004.9
20260904203529 86 54 0.0 3.0 0.00 0.18 0.18 74 1005.0
20260904203029 86 54 0.0 3.0 0.00 0.18 0.18 74 1004.9
20260904202530 87 68 0.0 3.0 0.00 0.18 0.18 73 1004.8
20260904202031 87 353 1.0 3.0 0.00 0.18 0.18 72 1004.8
20260904201529 88 32 0.0 5.0 0.00 0.18 0.18 71 1004.9
20260904201030 89 50 0.0 3.0 0.00 0.18 0.18 70 1004.8
20260904200528 90 23 0.0 1.0 0.00 0.18 0.18 68 1004.2
20260904200029 90 233 0.0 1.0 0.00 0.18 0.18 68 1003.9
20260904195528 90 233 0.0 1.0 0.00 0.18 0.18 66 1004.2
20260904195026 90 272 0.0 4.0 0.00 0.18 0.18 67 1004.5
20260904194526 90 269 0.0 4.0 0.00 0.18 0.18 66 1004.9
20260904194025 91 292 1.0 3.0 0.00 0.18 0.18 66 1005.1
20260904193525 91 288 0.0 2.0 0.00 0.18 0.18 65 1005.1
20260904193026 92 287 1.0 2.0 0.00 0.18 0.18 63 1005.0
20260904192524 92 296 0.0 3.0 0.00 0.18 0.18 63 1004.9
20260904192024 93 309 1.0 3.0 0.00 0.18 0.18 62 1005.0
20260904191524 93 337 0.0 5.0 0.00 0.18 0.18 62 1005.0
20260904191024 94 285 1.0 5.0 0.00 0.18 0.18 60 1004.9
20260904190523 94 224 0.0 3.0 0.00 0.18 0.18 63 1004.9
20260904190022 93 233 1.0 3.0 0.00 0.18 0.18 62 1005.0
20260904185521 93 253 0.0 4.0 0.00 0.18 0.18 63 1005.1
20260904185020 93 281 1.0 4.0 0.00 0.18 0.18 62 1005.2
20260904184519 94 294 0.0 3.0 0.00 0.18 0.18 62 1005.3
20260904184018 93 248 0.0 5.0 0.00 0.18 0.18 63 1005.4
20260904183517 92 205 1.0 5.0 0.00 0.18 0.18 63 1005.5
20260904183015 92 248 1.0 4.0 0.00 0.18 0.18 64 1005.6
20260904182517 92 61 1.0 5.0 0.00 0.18 0.18 63 1005.7
20260904182019 91 33 0.0 8.0 0.00 0.18 0.18 63 1005.7
20260904181538 92 306 2.0 7.0 0.00 0.18 0.18 63 1005.7
20260904181014 92 77 0.0 6.0 0.00 0.18 0.18 63 1005.8
20260904180515 91 165 0.0 6.0 0.00 0.18 0.18 64 1005.9
20260904180012 90 226 0.0 9.0 0.00 0.18 0.18 64 1006.0
20260904175512 90 238 2.0 9.0 0.00 0.18 0.18 65 1006.0
20260904175012 90 9 3.0 7.0 0.00 0.18 0.18 64 1006.1
20260904174512 90 23 2.0 12.0 0.00 0.18 0.18 64 1006.1
20260904174012 90 324 2.0 12.0 0.00 0.18 0.18 64 1006.1
20260904173510 91 359 3.0 6.0 0.00 0.18 0.18 63 1006.2
20260904173017 90 6 0.0 8.0 0.00 0.18 0.18 65 1006.2
20260904172509 89 256 1.0 8.0 0.00 0.18 0.18 65 1006.4
20260904172009 90 319 3.0 6.0 0.00 0.18 0.18 64 1006.4
20260904171508 90 28 2.0 6.0 0.00 0.18 0.18 66 1006.3
20260904171008 89 318 0.0 8.0 0.00 0.18 0.18 66 1006.4
20260904170507 90 302 3.0 8.0 0.00 0.18 0.18 66 1006.4
20260904170107 89 70 0.0 10.0 0.00 0.18 0.18 66 1006.4
20260904165610 89 54 3.0 10.0 0.00 0.18 0.18 67 1006.4
20260904165006 89 300 1.0 5.0 0.00 0.18 0.18 66 1006.6
20260904164505 89 323 0.0 8.0 0.00 0.18 0.18 68 1006.6
20260904164003 88 91 0.0 8.0 0.00 0.18 0.18 67 1006.6
20260904163502 89 335 3.0 7.0 0.00 0.18 0.18 67 1006.7
20260904163104 88 48 1.0 5.0 0.00 0.18 0.18 68 1006.8
20260904162501 88 134 0.0 6.0 0.00 0.18 0.18 68 1006.8
20260904162001 87 4 0.0 6.0 0.00 0.18 0.18 69 1006.9
20260904161600 87 342 2.0 6.0 0.00 0.18 0.18 67 1006.9